Time,TemperatureF,DewpointF,PressureIn,WindDirection,WindDirectionDegrees,WindSpeedMPH,WindSpeedGustMPH,Humidity,HourlyPrecipIn,Conditions,Clouds,dailyrainin,SoftwareType,DateUTC
2013-08-28 00:00:00,75.9,71.1,30.03,ENE,73,0.0,0.0,85,0.00,,,0.00,Wunderground v.1.15,2013-08-28 04:00:00,
2013-08-28 00:05:00,75.8,71.0,30.03,ENE,72,0.0,0.0,85,0.00,,,0.00,Wunderground v.1.15,2013-08-28 04:05:00,
2013-08-28 00:10:00,75.7,71.2,30.03,ENE,74,1.0,1.0,86,0.00,,,0.00,Wunderground v.1.15,2013-08-28 04:10:00,
2013-08-28 00:15:00,75.6,71.1,30.03,East,85,1.0,1.0,86,0.00,,,0.00,Wunderground v.1.15,2013-08-28 04:15:00,
2013-08-28 00:20:00,75.5,71.0,30.03,East,85,0.0,0.0,86,0.00,,,0.00,Wunderground v.1.15,2013-08-28 04:20:00,
2013-08-28 00:25:00,75.4,70.6,30.03,East,85,0.0,0.0,85,0.00,,,0.00,Wunderground v.1.15,2013-08-28 04:25:00,
2013-08-28 00:35:00,75.2,70.4,30.02,East,85,0.0,0.0,85,0.00,,,0.00,Wunderground v.1.15,2013-08-28 04:35:00,
2013-08-28 00:40:00,75.2,70.4,30.02,East,85,0.0,0.0,85,0.00,,,0.00,Wunderground v.1.15,2013-08-28 04:40:00,
2013-08-28 00:50:00,75.0,70.2,30.02,East,85,0.0,0.0,85,0.00,,,0.00,Wunderground v.1.15,2013-08-28 04:50:00,
2013-08-28 00:55:00,74.9,70.4,30.02,East,85,0.0,0.0,86,0.00,,,0.00,Wunderground v.1.15,2013-08-28 04:55:00,
2013-08-28 01:00:00,74.9,70.4,30.02,East,85,0.0,0.0,86,0.00,,,0.00,Wunderground v.1.15,2013-08-28 05:00:00,
2013-08-28 01:10:00,74.7,70.2,30.01,East,84,0.0,0.0,86,0.00,,,0.00,Wunderground v.1.15,2013-08-28 05:10:00,
2013-08-28 01:15:00,74.6,70.1,30.01,East,85,0.0,0.0,86,0.00,,,0.00,Wunderground v.1.15,2013-08-28 05:15:00,
2013-08-28 01:20:00,74.5,70.0,30.01,East,85,0.0,0.0,86,0.00,,,0.00,Wunderground v.1.15,2013-08-28 05:20:00,
2013-08-28 01:30:00,74.4,70.3,30.01,East,85,0.0,0.0,87,0.00,,,0.00,Wunderground v.1.15,2013-08-28 05:30:00,
2013-08-28 01:35:00,74.4,70.3,30.01,East,85,0.0,0.0,87,0.00,,,0.00,Wunderground v.1.15,2013-08-28 05:35:00,
2013-08-28 01:45:00,74.5,70.0,30.01,East,85,0.0,0.0,86,0.00,,,0.00,Wunderground v.1.15,2013-08-28 05:45:00,
2013-08-28 01:55:00,74.3,69.8,30.01,East,85,0.0,0.0,86,0.00,,,0.00,Wunderground v.1.15,2013-08-28 05:55:00,
2013-08-28 02:00:00,74.2,70.1,30.01,East,85,0.0,0.0,87,0.00,,,0.00,Wunderground v.1.15,2013-08-28 06:00:00,
2013-08-28 02:10:00,74.0,69.9,30.01,East,85,0.0,0.0,87,0.00,,,0.00,Wunderground v.1.15,2013-08-28 06:10:00,
2013-08-28 02:15:00,73.9,70.1,30.00,East,85,0.0,0.0,88,0.00,,,0.00,Wunderground v.1.15,2013-08-28 06:15:00,
2013-08-28 02:25:00,73.8,70.0,30.00,East,85,0.0,0.0,88,0.00,,,0.00,Wunderground v.1.15,2013-08-28 06:25:00,
2013-08-28 02:35:00,73.8,70.0,30.00,East,85,0.0,0.0,88,0.00,,,0.00,Wunderground v.1.15,2013-08-28 06:35:00,
2013-08-28 02:45:00,73.8,70.4,30.00,East,85,0.0,0.0,89,0.00,,,0.00,Wunderground v.1.15,2013-08-28 06:45:00,
2013-08-28 02:50:00,73.8,70.4,30.00,East,85,0.0,0.0,89,0.00,,,0.00,Wunderground v.1.15,2013-08-28 06:50:00,
2013-08-28 03:00:00,73.7,70.3,30.00,East,85,0.0,0.0,89,0.00,,,0.00,Wunderground v.1.15,2013-08-28 07:00:00,
2013-08-28 03:10:00,73.7,70.6,30.00,East,85,0.0,0.0,90,0.00,,,0.00,Wunderground v.1.15,2013-08-28 07:10:00,
2013-08-28 03:20:00,73.5,70.4,30.00,East,85,0.0,0.0,90,0.00,,,0.00,Wunderground v.1.15,2013-08-28 07:20:00,
2013-08-28 03:25:00,73.5,70.7,29.99,East,85,0.0,0.0,91,0.00,,,0.00,Wunderground v.1.15,2013-08-28 07:25:00,
2013-08-28 03:35:00,73.3,70.5,29.99,East,85,0.0,0.0,91,0.00,,,0.00,Wunderground v.1.15,2013-08-28 07:35:00,
2013-08-28 03:40:00,73.4,70.6,29.99,East,85,0.0,0.0,91,0.00,,,0.00,Wunderground v.1.15,2013-08-28 07:40:00,
2013-08-28 03:50:00,73.5,70.7,29.99,East,85,0.0,0.0,91,0.00,,,0.00,Wunderground v.1.15,2013-08-28 07:50:00,
2013-08-28 03:55:00,73.6,70.8,29.99,East,85,0.0,0.0,91,0.00,,,0.00,Wunderground v.1.15,2013-08-28 07:55:00,
2013-08-28 04:00:00,73.6,70.8,29.99,East,85,0.0,0.0,91,0.00,,,0.00,Wunderground v.1.15,2013-08-28 08:00:00,
2013-08-28 04:10:00,73.5,70.7,29.99,East,85,0.0,0.0,91,0.00,,,0.00,Wunderground v.1.15,2013-08-28 08:10:00,
2013-08-28 04:20:00,73.5,70.7,29.99,East,85,0.0,0.0,91,0.00,,,0.00,Wunderground v.1.15,2013-08-28 08:20:00,
2013-08-28 04:30:00,73.5,70.7,29.99,NE,53,0.0,0.0,91,0.00,,,0.00,Wunderground v.1.15,2013-08-28 08:30:00,
2013-08-28 04:35:00,73.6,70.8,29.99,ENE,57,0.0,0.0,91,0.00,,,0.00,Wunderground v.1.15,2013-08-28 08:35:00,
2013-08-28 04:45:00,73.9,70.8,29.99,ENE,57,0.0,0.0,90,0.00,,,0.00,Wunderground v.1.15,2013-08-28 08:45:00,
2013-08-28 04:50:00,73.8,70.7,29.99,ENE,57,0.0,0.0,90,0.00,,,0.00,Wunderground v.1.15,2013-08-28 08:50:00,
2013-08-28 05:00:00,73.7,70.6,29.99,ENE,57,0.0,0.0,90,0.00,,,0.00,Wunderground v.1.15,2013-08-28 09:00:00,
2013-08-28 05:10:00,73.6,70.8,29.99,ENE,57,0.0,0.0,91,0.00,,,0.00,Wunderground v.1.15,2013-08-28 09:10:00,
2013-08-28 05:20:00,73.5,70.7,29.99,ENE,57,0.0,0.0,91,0.00,,,0.00,Wunderground v.1.15,2013-08-28 09:20:00,
2013-08-28 05:25:00,73.4,70.6,29.99,ENE,57,0.0,0.0,91,0.00,,,0.00,Wunderground v.1.15,2013-08-28 09:25:00,
2013-08-28 05:35:00,73.4,70.6,29.99,ENE,57,0.0,0.0,91,0.00,,,0.00,Wunderground v.1.15,2013-08-28 09:35:00,
2013-08-28 05:45:00,73.2,70.4,29.99,ENE,57,0.0,0.0,91,0.00,,,0.00,Wunderground v.1.15,2013-08-28 09:45:00,
2013-08-28 05:50:00,73.2,70.7,29.99,ENE,57,0.0,0.0,92,0.00,,,0.00,Wunderground v.1.15,2013-08-28 09:50:00,
2013-08-28 06:00:00,73.2,70.7,29.99,ENE,57,0.0,0.0,92,0.00,,,0.00,Wunderground v.1.15,2013-08-28 10:00:00,
2013-08-28 06:10:00,73.2,70.7,29.99,ENE,57,0.0,0.0,92,0.00,,,0.00,Wunderground v.1.15,2013-08-28 10:10:00,
2013-08-28 06:15:00,73.2,70.7,29.99,ENE,57,0.0,0.0,92,0.00,,,0.00,Wunderground v.1.15,2013-08-28 10:15:00,
2013-08-28 06:20:00,73.2,70.7,29.99,ENE,57,0.0,2.0,92,0.00,,,0.00,Wunderground v.1.15,2013-08-28 10:20:00,
2013-08-28 06:30:00,73.0,70.5,30.00,ENE,57,0.0,0.0,92,0.00,,,0.00,Wunderground v.1.15,2013-08-28 10:30:00,
2013-08-28 06:35:00,73.0,70.9,30.00,ENE,57,0.0,0.0,93,0.00,,,0.00,Wunderground v.1.15,2013-08-28 10:35:00,
2013-08-28 06:45:00,73.0,70.9,30.00,ENE,57,0.0,0.0,93,0.00,,,0.00,Wunderground v.1.15,2013-08-28 10:45:00,
2013-08-28 06:50:00,73.0,70.9,30.00,ENE,57,0.0,0.0,93,0.00,,,0.00,Wunderground v.1.15,2013-08-28 10:50:00,
2013-08-28 07:00:00,73.0,71.2,30.00,ENE,57,0.0,0.0,94,0.00,,,0.00,Wunderground v.1.15,2013-08-28 11:00:00,
2013-08-28 07:10:00,73.1,71.3,30.00,ENE,57,0.0,0.0,94,0.00,,,0.00,Wunderground v.1.15,2013-08-28 11:10:00,
2013-08-28 07:20:00,73.2,71.4,30.00,ENE,57,0.0,0.0,94,0.00,,,0.00,Wunderground v.1.15,2013-08-28 11:20:00,
2013-08-28 07:25:00,73.4,71.6,30.00,ENE,57,0.0,0.0,94,0.00,,,0.00,Wunderground v.1.15,2013-08-28 11:25:00,
2013-08-28 07:35:00,73.7,71.5,30.00,ENE,57,0.0,0.0,93,0.00,,,0.00,Wunderground v.1.15,2013-08-28 11:35:00,
2013-08-28 07:45:00,74.4,71.9,30.01,ENE,57,0.0,1.0,92,0.00,,,0.00,Wunderground v.1.15,2013-08-28 11:45:00,
2013-08-28 07:50:00,74.7,72.2,30.01,NE,48,1.0,1.0,92,0.00,,,0.00,Wunderground v.1.15,2013-08-28 11:50:00,
2013-08-28 08:01:00,75.3,72.5,30.01,NE,49,0.0,0.0,91,0.00,,,0.00,Wunderground v.1.15,2013-08-28 12:01:00,
2013-08-28 08:10:00,75.9,72.4,30.01,NE,51,0.0,2.0,89,0.00,,,0.00,Wunderground v.1.15,2013-08-28 12:10:00,
2013-08-28 08:15:00,76.2,72.4,30.01,NE,46,1.0,1.0,88,0.00,,,0.00,Wunderground v.1.15,2013-08-28 12:15:00,
2013-08-28 08:25:00,76.8,72.6,30.02,NE,51,1.0,3.0,87,0.00,,,0.00,Wunderground v.1.15,2013-08-28 12:25:00,
2013-08-28 08:30:00,77.0,72.8,30.02,NE,48,1.0,4.0,87,0.00,,,0.00,Wunderground v.1.15,2013-08-28 12:30:00,
2013-08-28 08:40:00,77.4,72.5,30.02,NE,43,2.0,2.0,85,0.00,,,0.00,Wunderground v.1.15,2013-08-28 12:40:00,
2013-08-28 08:50:00,77.8,73.3,30.02,ENE,69,1.0,2.0,86,0.00,,,0.00,Wunderground v.1.15,2013-08-28 12:50:00,
2013-08-28 08:55:00,77.9,73.0,30.03,ENE,67,2.0,2.0,85,0.00,,,0.00,Wunderground v.1.15,2013-08-28 12:55:00,
2013-08-28 09:00:00,78.1,73.2,30.03,ENE,71,3.0,3.0,85,0.00,,,0.00,Wunderground v.1.15,2013-08-28 13:00:00,
2013-08-28 09:10:00,78.5,73.3,30.03,NE,50,3.0,4.0,84,0.00,,,0.00,Wunderground v.1.15,2013-08-28 13:10:00,
2013-08-28 09:20:00,79.0,73.4,30.03,ENE,64,2.0,2.0,83,0.00,,,0.00,Wunderground v.1.15,2013-08-28 13:20:00,
2013-08-28 09:30:00,79.9,73.2,30.03,NE,50,1.0,1.0,80,0.00,,,0.00,Wunderground v.1.15,2013-08-28 13:30:00,
2013-08-28 09:40:00,80.3,73.2,30.03,ENE,69,2.0,3.0,79,0.00,,,0.00,Wunderground v.1.15,2013-08-28 13:40:00,
2013-08-28 09:50:00,80.6,73.9,30.03,ENE,69,3.0,3.0,80,0.00,,,0.00,Wunderground v.1.15,2013-08-28 13:50:00,
2013-08-28 09:55:00,81.1,73.6,30.03,NE,48,1.0,3.0,78,0.00,,,0.00,Wunderground v.1.15,2013-08-28 13:55:00,
2013-08-28 10:05:00,81.3,73.0,30.03,East,101,2.0,2.0,76,0.00,,,0.00,Wunderground v.1.15,2013-08-28 14:05:00,
2013-08-28 10:15:00,81.2,73.3,30.04,East,87,3.0,3.0,77,0.00,,,0.00,Wunderground v.1.15,2013-08-28 14:15:00,
2013-08-28 10:20:00,81.5,73.2,30.04,ENE,65,3.0,3.0,76,0.00,,,0.00,Wunderground v.1.15,2013-08-28 14:20:00,
2013-08-28 10:30:00,82.0,73.7,30.04,ENE,72,2.0,5.0,76,0.00,,,0.00,Wunderground v.1.15,2013-08-28 14:30:00,
2013-08-28 10:40:00,82.5,73.8,30.05,East,101,2.0,6.0,75,0.00,,,0.00,Wunderground v.1.15,2013-08-28 14:40:00,
2013-08-28 10:50:00,83.0,73.4,30.05,SE,128,2.0,3.0,73,0.00,,,0.00,Wunderground v.1.15,2013-08-28 14:50:00,
2013-08-28 11:00:00,83.1,71.9,30.06,ESE,112,2.0,2.0,69,0.00,,,0.00,Wunderground v.1.15,2013-08-28 15:00:00,
2013-08-28 11:10:00,83.4,73.0,30.06,ESE,102,2.0,2.0,71,0.00,,,0.00,Wunderground v.1.15,2013-08-28 15:10:00,
2013-08-28 11:20:00,83.7,72.0,30.05,ESE,104,2.0,2.0,68,0.00,,,0.00,Wunderground v.1.15,2013-08-28 15:20:00,
2013-08-28 11:30:00,83.8,73.0,30.05,ENE,69,2.0,2.0,70,0.00,,,0.00,Wunderground v.1.15,2013-08-28 15:30:00,
2013-08-28 11:35:00,83.9,72.2,30.05,NNE,28,2.0,2.0,68,0.00,,,0.00,Wunderground v.1.15,2013-08-28 15:35:00,
2013-08-28 11:45:00,84.4,72.7,30.06,ESE,111,2.0,4.0,68,0.00,,,0.00,Wunderground v.1.15,2013-08-28 15:45:00,
2013-08-28 11:55:00,83.8,72.5,30.06,ENE,72,2.0,2.0,69,0.00,,,0.00,Wunderground v.1.15,2013-08-28 15:55:00,
2013-08-28 12:00:00,84.0,71.9,30.05,NE,55,1.0,3.0,67,0.00,,,0.00,Wunderground v.1.15,2013-08-28 16:00:00,
2013-08-28 12:10:00,84.3,72.1,30.05,NE,49,3.0,3.0,67,0.00,,,0.00,Wunderground v.1.15,2013-08-28 16:10:00,
2013-08-28 12:20:00,85.1,72.0,30.05,ESE,111,2.0,6.0,65,0.00,,,0.00,Wunderground v.1.15,2013-08-28 16:20:00,
2013-08-28 12:25:00,85.5,71.5,30.05,NE,39,2.0,7.0,63,0.00,,,0.00,Wunderground v.1.15,2013-08-28 16:25:00,
2013-08-28 12:35:00,85.3,71.3,30.04,ENE,67,3.0,8.0,63,0.00,,,0.00,Wunderground v.1.15,2013-08-28 16:35:00,
2013-08-28 12:45:00,85.7,71.2,30.04,ENE,76,2.0,5.0,62,0.00,,,0.00,Wunderground v.1.15,2013-08-28 16:45:00,
2013-08-28 12:55:00,85.9,70.4,30.03,NE,48,1.0,5.0,60,0.00,,,0.00,Wunderground v.1.15,2013-08-28 16:55:00,
2013-08-28 13:00:00,86.2,71.2,30.03,ESE,105,3.0,3.0,61,0.00,,,0.00,Wunderground v.1.15,2013-08-28 17:00:00,
2013-08-28 13:10:00,86.1,70.1,30.02,ESE,116,3.0,3.0,59,0.00,,,0.00,Wunderground v.1.15,2013-08-28 17:10:00,
2013-08-28 13:20:00,86.1,69.6,30.02,East,100,2.0,2.0,58,0.00,,,0.00,Wunderground v.1.15,2013-08-28 17:20:00,
2013-08-28 13:25:00,86.5,70.0,30.02,NE,46,2.0,6.0,58,0.00,,,0.00,Wunderground v.1.15,2013-08-28 17:25:00,
2013-08-28 13:35:00,86.6,69.6,30.02,ENE,67,4.0,4.0,57,0.00,,,0.00,Wunderground v.1.15,2013-08-28 17:35:00,
2013-08-28 13:45:00,86.8,69.7,30.01,East,93,2.0,5.0,57,0.00,,,0.00,Wunderground v.1.15,2013-08-28 17:45:00,
2013-08-28 13:55:00,87.2,69.1,30.01,NE,46,3.0,7.0,55,0.00,,,0.00,Wunderground v.1.15,2013-08-28 17:55:00,
2013-08-28 14:00:00,87.3,67.0,30.00,ENE,78,2.0,2.0,51,0.00,,,0.00,Wunderground v.1.15,2013-08-28 18:00:00,
2013-08-28 14:10:00,87.8,68.0,30.00,NE,55,2.0,2.0,52,0.00,,,0.00,Wunderground v.1.15,2013-08-28 18:10:00,
2013-08-28 14:15:00,88.3,67.9,30.00,North,11,2.0,5.0,51,0.00,,,0.00,Wunderground v.1.15,2013-08-28 18:15:00,
2013-08-28 14:25:00,88.1,67.1,30.00,NE,49,3.0,4.0,50,0.00,,,0.00,Wunderground v.1.15,2013-08-28 18:25:00,
2013-08-28 14:30:00,87.9,66.4,30.00,NE,39,4.0,6.0,49,0.00,,,0.00,Wunderground v.1.15,2013-08-28 18:30:00,
2013-08-28 14:40:00,87.6,66.7,30.00,East,87,4.0,4.0,50,0.00,,,0.00,Wunderground v.1.15,2013-08-28 18:40:00,
2013-08-28 14:50:00,87.7,66.8,30.00,ENE,61,2.0,2.0,50,0.00,,,0.00,Wunderground v.1.15,2013-08-28 18:50:00,
2013-08-28 15:00:00,88.4,66.8,30.00,North,349,2.0,2.0,49,0.00,,,0.00,Wunderground v.1.15,2013-08-28 19:00:00,
2013-08-28 15:10:00,88.5,68.1,30.00,East,89,2.0,4.0,51,0.00,,,0.00,Wunderground v.1.15,2013-08-28 19:10:00,
2013-08-28 15:20:00,88.5,66.3,30.00,NNE,17,2.0,2.0,48,0.00,,,0.00,Wunderground v.1.15,2013-08-28 19:20:00,
2013-08-28 15:25:00,89.1,66.9,29.99,North,11,1.0,2.0,48,0.00,,,0.00,Wunderground v.1.15,2013-08-28 19:25:00,
2013-08-28 15:35:00,89.4,67.1,29.99,WNW,300,1.0,1.0,48,0.00,,,0.00,Wunderground v.1.15,2013-08-28 19:35:00,
2013-08-28 15:45:00,89.2,67.5,29.99,East,82,2.0,4.0,49,0.00,,,0.00,Wunderground v.1.15,2013-08-28 19:45:00,
2013-08-28 15:55:00,88.6,67.0,29.99,NE,34,2.0,3.0,49,0.00,,,0.00,Wunderground v.1.15,2013-08-28 19:55:00,
2013-08-28 16:00:00,88.7,68.2,29.99,NNE,31,2.0,2.0,51,0.00,,,0.00,Wunderground v.1.15,2013-08-28 20:00:00,
2013-08-28 16:10:00,87.5,67.7,29.99,East,86,2.0,2.0,52,0.00,,,0.00,Wunderground v.1.15,2013-08-28 20:10:00,
2013-08-28 16:20:00,88.1,67.7,29.98,NNE,28,1.0,2.0,51,0.00,,,0.00,Wunderground v.1.15,2013-08-28 20:20:00,
2013-08-28 16:30:00,88.4,66.8,29.98,ENE,65,3.0,3.0,49,0.00,,,0.00,Wunderground v.1.15,2013-08-28 20:30:00,
2013-08-28 16:40:00,88.6,67.6,29.98,NE,40,2.0,2.0,50,0.00,,,0.00,Wunderground v.1.15,2013-08-28 20:40:00,
2013-08-28 16:50:00,87.1,72.0,29.98,ESE,119,3.0,3.0,61,0.00,,,0.00,Wunderground v.1.15,2013-08-28 20:50:00,
2013-08-28 17:00:00,82.5,72.6,29.98,SE,140,2.0,4.0,72,0.00,,,0.00,Wunderground v.1.15,2013-08-28 21:00:00,
2013-08-28 17:10:00,80.5,72.2,29.98,SE,127,2.0,2.0,76,0.00,,,0.00,Wunderground v.1.15,2013-08-28 21:10:00,
2013-08-28 17:15:00,80.0,72.1,29.98,ESE,115,1.0,2.0,77,0.00,,,0.00,Wunderground v.1.15,2013-08-28 21:15:00,
2013-08-28 17:25:00,79.8,72.3,29.99,ESE,103,1.0,1.0,78,0.00,,,0.00,Wunderground v.1.15,2013-08-28 21:25:00,
2013-08-28 17:30:00,79.9,72.8,29.98,ESE,113,1.0,1.0,79,0.00,,,0.00,Wunderground v.1.15,2013-08-28 21:30:00,
2013-08-28 17:40:00,80.0,73.3,29.98,South,184,0.0,0.0,80,0.00,,,0.00,Wunderground v.1.15,2013-08-28 21:40:00,
2013-08-28 17:45:00,80.0,72.5,29.98,ESE,123,1.0,2.0,78,0.00,,,0.00,Wunderground v.1.15,2013-08-28 21:45:00,
2013-08-28 17:50:00,79.8,72.3,29.98,ENE,78,2.0,3.0,78,0.00,,,0.00,Wunderground v.1.15,2013-08-28 21:50:00,
2013-08-28 18:00:00,79.4,71.9,29.98,SE,130,1.0,1.0,78,0.00,,,0.00,Wunderground v.1.15,2013-08-28 22:00:00,
2013-08-28 18:10:00,79.7,71.8,29.98,East,93,2.0,2.0,77,0.00,,,0.00,Wunderground v.1.15,2013-08-28 22:10:00,
2013-08-28 18:20:00,80.3,72.0,29.98,East,90,1.0,1.0,76,0.00,,,0.00,Wunderground v.1.15,2013-08-28 22:20:00,
2013-08-28 18:30:00,80.6,72.3,29.98,East,90,1.0,1.0,76,0.00,,,0.00,Wunderground v.1.15,2013-08-28 22:30:00,
2013-08-28 18:40:00,80.3,71.6,29.98,ESE,107,0.0,0.0,75,0.00,,,0.00,Wunderground v.1.15,2013-08-28 22:40:00,
2013-08-28 18:50:00,80.4,71.3,29.98,ESE,119,0.0,0.0,74,0.00,,,0.00,Wunderground v.1.15,2013-08-28 22:50:00,
2013-08-28 19:00:00,80.1,71.5,29.98,East,92,0.0,0.0,75,0.00,,,0.00,Wunderground v.1.15,2013-08-28 23:00:00,
2013-08-28 19:10:00,80.4,71.3,29.98,East,92,0.0,0.0,74,0.00,,,0.00,Wunderground v.1.15,2013-08-28 23:10:00,
2013-08-28 19:20:00,80.1,71.1,29.98,East,92,0.0,0.0,74,0.00,,,0.00,Wunderground v.1.15,2013-08-28 23:20:00,
2013-08-28 19:30:00,80.2,71.2,29.99,East,92,0.0,0.0,74,0.00,,,0.00,Wunderground v.1.15,2013-08-28 23:30:00,
2013-08-28 19:40:00,79.7,70.7,29.99,East,92,0.0,0.0,74,0.00,,,0.00,Wunderground v.1.15,2013-08-28 23:40:00,
2013-08-28 19:50:00,79.3,71.1,29.99,East,92,0.0,0.0,76,0.00,,,0.00,Wunderground v.1.15,2013-08-28 23:50:00,
2013-08-28 20:00:00,78.9,70.7,30.00,East,92,0.0,0.0,76,0.00,,,0.00,Wunderground v.1.15,2013-08-29 00:00:00,
2013-08-28 20:10:00,78.6,71.2,30.00,East,92,0.0,0.0,78,0.00,,,0.00,Wunderground v.1.15,2013-08-29 00:10:00,
2013-08-28 20:20:00,78.4,71.0,30.00,East,92,0.0,0.0,78,0.00,,,0.00,Wunderground v.1.15,2013-08-29 00:20:00,
2013-08-28 20:30:00,78.4,70.2,30.00,ESE,122,2.0,2.0,76,0.00,,,0.00,Wunderground v.1.15,2013-08-29 00:30:00,
2013-08-28 20:40:00,78.2,69.6,30.00,ESE,123,0.0,0.0,75,0.00,,,0.00,Wunderground v.1.15,2013-08-29 00:40:00,
2013-08-28 20:45:00,77.9,69.3,30.00,ESE,123,0.0,0.0,75,0.00,,,0.00,Wunderground v.1.15,2013-08-29 00:45:00,
2013-08-28 20:55:00,77.4,69.6,30.01,ESE,123,0.0,0.0,77,0.00,,,0.00,Wunderground v.1.15,2013-08-29 00:55:00,
2013-08-28 21:00:00,77.2,69.4,30.00,ESE,123,0.0,0.0,77,0.00,,,0.00,Wunderground v.1.15,2013-08-29 01:00:00,
2013-08-28 21:10:00,76.8,69.8,30.01,ESE,123,0.0,0.0,79,0.00,,,0.00,Wunderground v.1.15,2013-08-29 01:10:00,
2013-08-28 21:20:00,76.3,70.0,30.01,ESE,123,0.0,0.0,81,0.00,,,0.00,Wunderground v.1.15,2013-08-29 01:20:00,
2013-08-28 21:30:00,75.9,70.0,30.02,ESE,123,0.0,0.0,82,0.00,,,0.00,Wunderground v.1.15,2013-08-29 01:30:00,
2013-08-28 21:35:00,75.8,69.9,30.02,ESE,123,0.0,0.0,82,0.00,,,0.00,Wunderground v.1.15,2013-08-29 01:35:00,
2013-08-28 21:45:00,75.6,70.1,30.02,ESE,123,0.0,0.0,83,0.00,,,0.00,Wunderground v.1.15,2013-08-29 01:45:00,
2013-08-28 21:55:00,75.5,70.0,30.02,ESE,123,0.0,0.0,83,0.00,,,0.00,Wunderground v.1.15,2013-08-29 01:55:00,
2013-08-28 22:00:00,75.4,69.9,30.02,ESE,123,0.0,0.0,83,0.00,,,0.00,Wunderground v.1.15,2013-08-29 02:00:00,
2013-08-28 22:10:00,75.3,70.1,30.02,ESE,123,0.0,0.0,84,0.00,,,0.00,Wunderground v.1.15,2013-08-29 02:10:00,
2013-08-28 22:15:00,75.4,70.2,30.02,ESE,123,0.0,0.0,84,0.00,,,0.00,Wunderground v.1.15,2013-08-29 02:15:00,
2013-08-28 22:25:00,75.4,70.2,30.02,ESE,123,0.0,0.0,84,0.00,,,0.00,Wunderground v.1.15,2013-08-29 02:25:00,
2013-08-28 22:30:00,75.3,70.1,30.03,ESE,123,0.0,0.0,84,0.00,,,0.00,Wunderground v.1.15,2013-08-29 02:30:00,
2013-08-28 22:40:00,75.3,69.8,30.03,ESE,123,0.0,0.0,83,0.00,,,0.00,Wunderground v.1.15,2013-08-29 02:40:00,
2013-08-28 22:50:00,75.1,69.9,30.03,ESE,123,0.0,0.0,84,0.00,,,0.00,Wunderground v.1.15,2013-08-29 02:50:00,
2013-08-28 23:00:00,75.3,70.5,30.03,ESE,123,0.0,0.0,85,0.00,,,0.00,Wunderground v.1.15,2013-08-29 03:00:00,
2013-08-28 23:10:00,75.1,70.3,30.03,ESE,123,0.0,0.0,85,0.00,,,0.00,Wunderground v.1.15,2013-08-29 03:10:00,
2013-08-28 23:20:00,75.0,70.5,30.03,ESE,123,0.0,0.0,86,0.00,,,0.00,Wunderground v.1.15,2013-08-29 03:20:00,
2013-08-28 23:30:00,74.8,70.0,30.04,ESE,123,0.0,0.0,85,0.00,,,0.00,Wunderground v.1.15,2013-08-29 03:30:00,
2013-08-28 23:40:00,74.8,70.3,30.03,ESE,123,0.0,0.0,86,0.00,,,0.00,Wunderground v.1.15,2013-08-29 03:40:00,
2013-08-28 23:50:00,74.8,70.3,30.04,ESE,123,0.0,0.0,86,0.00,,,0.00,Wunderground v.1.15,2013-08-29 03:50:00,